Zurück zum Katalog

ONEWEB-0029

AktivKommunikationPO
NORAD 45445·PAYLOAD·🇬🇧 United Kingdom

Gestartet Mar 21, 2020 von Baikonur Cosmodrome

Loading…

Nächste Überflüge (nächste 24 Stunden)

TLE

AktuellSource: CelesTrak SupGP

Epoche: Sep 15, 2026, 00:05 UTC

1 45445C 20020X   26258.00397407 -.00000084  00000+0 -23633-3 0  2580
2 45445  87.8967   3.2105 0002053 100.7323   2.7780 13.11414439    12

Verfolge ONEWEB-0029 in Echtzeit mit AllMySat

Download on the App Store